This demonstration page uses our WeatherBlox Daily Observations layout. Learn more.

39.92423, -83.80882

Hourly Observations for December 26, 2018

Temp ( °F °C ) Dew Point ( °F °C ) Humidity (%) Winds ( mph kmh ) Pressure ( in mb ) Visibility ( mi km ) Precip ( " mm )
12:04 am 00:04 Mostly Cloudy with Mist and Fog 27 -3 27 -3 100 100 E 3 6 30.45 1031 1 1.60934 0 0
12:06 am 00:06 Mostly Cloudy with Freezing Fog 25 -4 25 -4 100 100 E 3 6 30.45 1031 0.5 0.80467 0 0
12:30 am 00:30 Mostly Cloudy with Mist and Fog 25 -4 25 -4 100 100 ESE 3 6 30.45 1031 0.75 1.207005 0 0
12:37 am 00:37 Mostly Cloudy with Freezing Fog 25 -4 25 -4 100 100 E 3 6 30.45 1031 0.25 0.402335 0 0
12:56 am 00:56 Mostly Cloudy with Freezing Fog 24 -4.4 24 -4.4 100 100 SE 3 6 30.43 1030 0.25 0.402335 0 0
1:48 am 01:48 Mostly Cloudy with Mist and Fog 25 -4 25 -4 100 100 SE 3 6 30.45 1031 0.75 1.207005 0 0
1:50 am 01:50 Partly Cloudy with Mist and Fog 25 -4 25 -4 100 100 SE 3 6 30.45 1031 1.25 2.011675 0 0
1:56 am 01:56 Partly Cloudy with Mist and Fog 24 -4.4 24 -4.4 100 100 SE 3 6 30.44 1031 1.25 2.011675 0 0
2:00 am 02:00 Mostly Cloudy with Mist and Fog 25 -4 25 -4 100 100 SE 3 6 30.45 1031 0.75 1.207005 0 0
2:07 am 02:07 Mostly Cloudy with Freezing Fog 25 -4 25 -4 100 100 Calm 30.45 1031 0.25 0.402335 0 0
2:15 am 02:15 Mostly Cloudy with Mist and Fog 25 -4 25 -4 100 100 S 5 7 30.48 1032 0.75 1.207005 0 0
2:19 am 02:19 Mostly Clear with Mist and Fog 25 -4 25 -4 100 100 S 5 7 30.48 1032 1.25 2.011675 0 0
2:23 am 02:23 Mostly Clear with Mist and Fog 25 -4 25 -4 100 100 S 3 6 30.48 1032 3 4.82802 0 0
2:56 am 02:56 Clear with Mist and Fog 24 -4.4 24 -4.4 100 100 Calm 30.46 1032 1.5 2.41401 0 0
2:59 am 02:59 Clear with Mist and Fog 25 -4 25 -4 100 100 Calm 30.48 1032 0.75 1.207005 0 0
3:05 am 03:05 Clear with Freezing Fog 25 -4 25 -4 100 100 Calm 30.48 1032 0.25 0.402335 0 0
3:15 am 03:15 Clear with Freezing Fog 25 -4 25 -4 100 100 Calm 30.48 1032 0.5 0.80467 0 0
3:24 am 03:24 Clear with Freezing Fog 23 -5 23 -5 100 100 Calm 30.48 1032 0.25 0.402335 0 0
3:34 am 03:34 Mostly Cloudy with Freezing Fog 25 -4 25 -4 100 100 Calm 30.48 1032 0.25 0.402335 0 0
3:56 am 03:56 Mostly Cloudy with Freezing Fog 25 -3.9 25 -3.9 100 100 Calm 30.48 1032 0.25 0.402335 0 0
4:10 am 04:10 Clear with Freezing Fog 25 -4 25 -4 100 100 Calm 30.48 1032 0.25 0.402335 0 0
4:17 am 04:17 Mostly Cloudy with Freezing Fog 23 -5 23 -5 100 100 Calm 30.48 1032 0.25 0.402335 0 0
4:47 am 04:47 Mostly Cloudy with Mist and Fog 21 -6 21 -6 100 100 Calm 30.48 1032 0.75 1.207005 0 0
4:51 am 04:51 Mostly Cloudy with Mist and Fog 21 -6 21 -6 100 100 Calm 30.48 1032 1.25 2.011675 0 0
4:54 am 04:54 Mostly Cloudy with Mist and Fog 21 -6 21 -6 100 100 Calm 30.48 1032 3 4.82802 0 0
4:56 am 04:56 Partly Cloudy with Mist and Fog 22 -5.6 22 -5.6 100 100 Calm 30.48 1032 4 6.43736 0 0
5:10 am 05:10 Mostly Clear with Mist and Fog 21 -6 21 -6 100 100 Calm 30.5 1033 1.5 2.41401 0 0
5:21 am 05:21 Mostly Clear with Mist and Fog 21 -6 21 -6 100 100 ENE 3 6 30.5 1033 3 4.82802 0 0
5:56 am 05:56 Clear with Mist and Fog 23 -5 23 -5 100 100 E 3 6 30.49 1033 4 6.43736 0 0
5:59 am 05:59 Clear with Mist and Fog 23 -5 23 -5 100 100 E 5 7 30.5 1033 1.5 2.41401 0 0
6:07 am 06:07 Clear with Mist and Fog 21 -6 21 -6 100 100 E 5 7 30.5 1033 1 1.60934 0 0
6:10 am 06:10 Clear with Mist and Fog 21 -6 21 -6 100 100 E 5 7 30.5 1033 2 3.21868 0 0
6:17 am 06:17 Clear with Mist and Fog 21 -6 21 -6 100 100 ESE 3 6 30.5 1033 5 8.0467 0 0
6:56 am 06:56 Clear with Mist and Fog 23 -5 22 -5.6 96 96 Calm 30.51 1033 6 9.65604 0 0
7:56 am 07:56 Sunny with Mist and Fog 21 -6.1 20 -6.7 96 96 E 5 7 30.53 1034 5 8.0467 0 0
8:56 am 08:56 Sunny 24 -4.4 24 -4.4 100 100 E 3 6 30.54 1034 8 12.87472 0 0
9:56 am 09:56 Sunny 32 0 32 0 100 100 SE 5 7 30.54 1034 10 16.0934 0 0
10:56 am 10:56 Sunny 36 2.2 36 2.2 100 100 SE 8 13 30.53 1034 10 16.0934 0 0
11:56 am 11:56 Sunny 39 3.9 37 2.8 93 93 SSE 7 11 30.52 1033 10 16.0934 0 0
12:56 pm 12:56 Sunny 42 5.6 33 0.6 71 71 S 7 11 30.49 1032 10 16.0934 0 0
1:56 pm 13:56 Sunny 42 5.6 33 0.6 71 71 SE 9 15 30.47 1032 10 16.0934 0 0
2:56 pm 14:56 Sunny 43 6.1 34 1.1 71 71 ESE 9 15 30.47 1032 10 16.0934 0 0
3:56 pm 15:56 Sunny 43 6.1 34 1.1 71 71 ESE 8 13 30.47 1032 10 16.0934 0 0
4:56 pm 16:56 Sunny 38 3.3 32 0 79 79 E 8 13 30.47 1032 10 16.0934 0 0
5:56 pm 17:56 Clear 34 1.1 31 -0.6 89 89 E 6 9 30.47 1032 10 16.0934 0 0
6:56 pm 18:56 Clear 31 -0.6 29 -1.7 92 92 E 8 13 30.46 1032 10 16.0934 0 0
7:56 pm 19:56 Clear 31 -0.6 30 -1.1 96 96 E 8 13 30.46 1031 10 16.0934 0 0
8:56 pm 20:56 Clear 31 -0.6 29 -1.7 92 92 E 10 17 30.44 1031 10 16.0934 0 0
9:56 pm 21:56 Clear 31 -0.6 29 -1.7 92 92 ESE 8 13 30.42 1030 10 16.0934 0 0
10:56 pm 22:56 Clear 31 -0.6 28 -2.2 89 89 ESE 9 15 30.42 1030 10 16.0934 0 0
11:56 pm 23:56 Clear 32 0 29 -1.7 88 88 ESE 9 15 30.4 1029 10 16.0934 0 0

Powered by AerisWeather